Flag for Pakistan Weather past 2 weeks in Karachi, Sindh, Pakistan

Now
70 °F

Passing clouds.


Feels Like: 70 °F
Forecast: 65 / 78 °F
Wind: 12 mph from West

Location: Karachi Airport

Current Time: Mar 2, 2015 at 9:59:21 PM

Latest Report: Mar 2, 2015 at 9:25 PM


Visibility: 4 mi

Pressure: 29.95 "Hg

Humidity: 43%

Dew point: 46 °F

Location of KarachiLocation

Historic Weather in Karachi — Graph

°F

Karachi temperature yesterday

Maximum temperature yesterday: 73 °F (at 4:25 PM)
Minimum temperature yesterday: 59 °F (at 4:55 AM)
Average temperature yesterday: 66 °F

Past Weeks' High & Low Weather Summary

 TemperatureHumidityPressure
High91 °F (Feb 21, 3:55 PM)94% (Feb 17, 11:55 PM)30.07 "Hg (Feb 17, 11:55 PM)
Low55 °F (Mar 2, 7:25 AM)11% (Feb 25, 2:55 PM)29.74 "Hg (Feb 28, 3:25 PM)
Average73 °F52%29.89 "Hg
* Reported Feb 15 8:25 PM — Mar 2 8:25 PM, Karachi, Weather by CustomWeather, © 2015

Note: Actual official high and low records may vary slightly from our data, if they occured in-between our weather recording intervals... More about our weather records

Advertising

Karachi weather history for previous 24 hours

 ConditionsComfort  
Time TempWeatherWind HumidityBarometerVisibility
8:25 PM
Mon, Mar 2
70 °FPassing clouds.14 mph46%29.95 "Hg4 mi
7:55 PM72 °FPassing clouds.14 mph44%29.95 "Hg4 mi
7:25 PM72 °FPassing clouds.14 mph44%29.92 "Hg4 mi
6:55 PM72 °FPassing clouds.16 mph41%29.92 "Hg4 mi
6:25 PM73 °FPassing clouds.18 mph33%29.92 "Hg5 mi
5:55 PM75 °FPassing clouds.16 mph25%29.89 "Hg5 mi
5:25 PM77 °FPassing clouds.20 mph24%29.89 "Hg5 mi
4:55 PM77 °FPassing clouds.17 mph24%29.89 "Hg5 mi
4:25 PM77 °FPassing clouds.21 mph24%29.86 "Hg5 mi
3:55 PM77 °FPassing clouds.16 mph26%29.86 "Hg5 mi
3:25 PM77 °FPassing clouds.16 mph28%29.89 "Hg5 mi
2:55 PM79 °FScattered clouds.9 mph23%29.89 "Hg5 mi
2:25 PM79 °FScattered clouds.17 mph23%29.92 "Hg5 mi
1:55 PM79 °FScattered clouds.12 mph24%29.92 "Hg5 mi
1:25 PM77 °FScattered clouds.12 mph32%29.92 "Hg5 mi
12:55 PM75 °FScattered clouds.12 mph41%29.95 "Hg4 mi
12:25 PM73 °FScattered clouds.3 mph47%29.95 "Hg4 mi
11:25 AM72 °FClear.7 mph53%29.98 "Hg4 mi
10:55 AM70 °FClear.3 mph57%29.98 "Hg4 mi
10:25 AM68 °FClear.5 mph69%29.98 "Hg4 mi
9:55 AM66 °FClear.No wind60%29.98 "Hg4 mi
9:25 AM64 °FHaze.5 mph64%29.98 "Hg3 mi
8:55 AM61 °FHaze.10 mph72%29.95 "Hg3 mi
8:25 AM59 °FHaze.8 mph77%29.92 "Hg2 mi
7:55 AM57 °FHaze.7 mph77%29.92 "Hg2 mi
7:25 AM55 °FHaze.6 mph82%29.92 "Hg2 mi
6:55 AM57 °FPassing clouds.6 mph77%29.89 "Hg3 mi
6:25 AM59 °FPassing clouds.8 mph77%29.89 "Hg4 mi
4:55 AM59 °FPassing clouds.5 mph77%29.86 "Hg4 mi
4:25 AM59 °FPassing clouds.6 mph77%29.86 "Hg4 mi
3:55 AM59 °FPassing clouds.7 mph72%29.86 "Hg4 mi
3:25 AM59 °FPassing clouds.7 mph68%29.86 "Hg4 mi
2:55 AM59 °FPassing clouds.7 mph68%29.86 "Hg4 mi
2:25 AM59 °FPassing clouds.8 mph68%29.86 "Hg4 mi
1:55 AM61 °FPassing clouds.6 mph63%29.86 "Hg4 mi
1:25 AM61 °FPassing clouds.7 mph63%29.86 "Hg4 mi
12:25 AM64 °FPassing clouds.7 mph52%29.89 "Hg4 mi
11:55 PM
Sun, Mar 1
61 °FPassing clouds.6 mph59%29.89 "Hg4 mi
11:25 PM61 °FPassing clouds.7 mph59%29.89 "Hg4 mi
10:55 PM63 °FPassing clouds.3 mph52%29.89 "Hg4 mi
10:25 PM63 °FPassing clouds.8 mph52%29.89 "Hg4 mi
9:55 PM64 °FPassing clouds.9 mph49%29.89 "Hg4 mi
9:25 PM64 °FPassing clouds.8 mph46%29.89 "Hg4 mi
Weather by CustomWeather, © 2015

See weather overviewHow to use our weather pages